Location: Assche-ter-Heiden
(50.9174°N, 4.1574°E)
Time: 15:58:53
(UTC+00:00)

PSLV R/B - Pass Details

Date: 20 January 2020
Orbit: 503 x 581 km, 97.8° (Epoch: 19 February)

Event Time Altitude Azimuth Distance (km) Brightness Sun altitude
Rises 05:21:34 0° 10° (N) 2,705 7.4 -20.6°
Reaches altitude 10° 05:23:44 10° 7° (N) 1,796 6.4 -20.3°
Maximum altitude 05:27:32 58° 288° (WNW) 616 3.7 -19.7°
Enters shadow 05:27:34 58° 286° (WNW) 616 3.7 -19.7°
